TOURFACTS.DK  
Stats and Facts from Tour de France.

Tour de France 2019 starts in 321 days
  Riders   Stages   Teams   Summits   Yearly  


 
Search by year

After 2018 - Stage 21:
 15000 starters.
  5165 different riders.
  638 teams.
  2253 stages.
  456 restdays.
  442940.60 km.
  5684 abandonnees.


Top 3
GC
Geraint Thomas83:17:13
Tom Dumoulin83:19:04
Christopher Froome83:19:37
Climb
Julian Alaphilippe170 pt.
Warren Barguil91 pt.
Rafal Majka76 pt.
Sprint
Peter Sagan477 pt.
Alexander Kristoff246 pt.
Arnaud Démare203 pt.
Youth
Pierre-Roger Latou..83:39:26
Egan Bernal83:45:05
Guillaume Martin84:01:31
Facts from Tour de France 2015
  |   Stages.  |   Stage winners.  |   Days in yellow  |   Average speed.  |   Route.  |   Teams.  |   All riders.  |   Rookies.  |  

  |   Withdrawls.  |   GC.  |   Polka  |   Green  |   White  |   Summits. (In tour)  |   Miscellaneous.  |  

Stage 8 on 11 - 07 - 2015
         Owning:    Christopher Froome      Daniel Teklehaimanot      Peter Sagan      Peter Sagan  

Pick a stage:  1 2 3 4 5 6 7 8 9 10 11 12 13 14 15 16 17 18 19 20 21
  RennesMûr de Bretagne | Dist: 181.50 km.
Cat: 4Col du Mont Bel-AirFRARomain Sicard1 points 
Cat: 3Mûr-de-BretagneFRAAlexis Vuillermoz2 points 

Average speed for all riders in stage:  40,934 km./hr.
    Place:Name:Team:Time:Km/h:
1
FRAAlexis VuillermozFRAAg2r La Mondiale04:20:55  +  00:00:00=41,737 
2
ENGDaniel MartinUSATeam Cannondale - Garmin04:21:00  +  00:00:05=41,724 
3
ESPAlejandro ValverdeESPMovistar Team04:28:20  +  00:07:25=40,584 
44 SVKPeter SaganRUSTinkoff Saxo04:28:20  +  00:07:25=40,584 
55 FRATony GallopinBELLotto Soudal04:28:20  +  00:07:25=40,584 
66 BELGreg Van AvermaetUSABMC Racing Team04:28:20  +  00:07:25=40,584 
77 ENGAdam YatesAUSOrica - GreenEDGE04:28:20  +  00:07:25=40,584 
88 KENChristopher FroomeGBRSky Procycling04:28:20  +  00:07:25=40,584 
99 NEDBauke MollemaUSATrek Factory Racing04:28:20  +  00:07:25=40,584 
1010 USATejay Van GarderenUSABMC Racing Team04:28:20  +  00:07:25=40,584 
1111 COLJulián ArredondoUSATrek Factory Racing04:28:20  +  00:07:25=40,584 
1212 ESPJoaquim RodriguezRUSTeam Katusha04:28:20  +  00:07:25=40,584 
1313 FRAWarren BarguilDEUTeam Giant Alpecin04:28:20  +  00:07:25=40,584 
1414 ESPAlberto ContadorRUSTinkoff Saxo04:28:20  +  00:07:25=40,584 
1515 COLRigoberto UránBELEtixx - Quick Step04:28:20  +  00:07:25=40,584 
1616 CZERoman KreuzigerRUSTinkoff Saxo04:28:20  +  00:07:25=40,584 
1717 COLNairo QuintanaESPMovistar Team04:28:20  +  00:07:25=40,584 
1818 FRAJulien SimonFRACofidis – Solutions Crédits04:28:20  +  00:07:25=40,584 
1919 NEDRobert GesinkNLDTeam Lotto NL - Jumbo04:28:20  +  00:07:25=40,584 
2020 FRAPierre RollandFRATeam Europcar04:28:20  +  00:07:25=40,584 
2121 ESPGorka Izaguirre InsaustiESPMovistar Team04:28:20  +  00:07:25=40,584 
2222 ESPSamuel SanchezUSABMC Racing Team04:28:20  +  00:07:25=40,584 
2323 ENGSimon YatesAUSOrica - GreenEDGE04:28:20  +  00:07:25=40,584 
2424 FRAJean-Christophe PeraudFRAAg2r La Mondiale04:28:20  +  00:07:25=40,584 
2525 SUIMathias FrankCHEIAM Cycling04:28:20  +  00:07:25=40,584 
2626 GERPaul MartensNLDTeam Lotto NL - Jumbo04:28:20  +  00:07:25=40,584 
2727 LUXBob JungelsUSATrek Factory Racing04:28:20  +  00:07:25=40,584 
2828 BELSerge PauwelsZAFMTN - Qhubeka P/B Samsung04:21:15  +  00:00:20=41,684 
2929 ESPHaimar ZubeldiaUSATrek Factory Racing04:21:15  +  00:00:20=41,684 
3030 ITAVincenzo NibaliKAZAstana Pro Team04:21:15  +  00:00:20=41,684 
3131 USAAndrew TalanskyUSATeam Cannondale - Garmin04:21:15  +  00:00:20=41,684 
3232 FRAThibaut PinotFRAFDJ04:21:20  +  00:00:25=41,671 
3333 BELJan BakelantsFRAAg2r La Mondiale04:21:26  +  00:00:31=41,655 
3434 FRARomain BardetFRAAg2r La Mondiale04:21:26  +  00:00:31=41,655 
3535 GERPaul VossDEUBora-Argon 1804:21:28  +  00:00:33=41,650 
3636 GERDominik NerzDEUBora-Argon 1804:21:28  +  00:00:33=41,650 
3737 FRACyril GautierFRATeam Europcar04:21:28  +  00:00:33=41,650 
3838 CZEZdenek StybarBELEtixx - Quick Step04:21:28  +  00:00:33=41,650 
3939 SUIMarcel WyssCHEIAM Cycling04:21:28  +  00:00:33=41,650 
4040 GERSimon GeschkeDEUTeam Giant Alpecin04:21:28  +  00:00:33=41,650 
4141 COLJarlinson Pantano GomezCHEIAM Cycling04:21:36  +  00:00:41=41,628 
4242 FRAThomas VoecklerFRATeam Europcar04:21:36  +  00:00:41=41,628 
4343 ESPLuis Angel MateFRACofidis – Solutions Crédits04:21:40  +  00:00:45=41,618 
4444 NEDSteven KruijswijkNLDTeam Lotto NL - Jumbo04:21:40  +  00:00:45=41,618 
4545 ARGEduardo SepulvedaFRABretagne - Séché Environnement04:21:40  +  00:00:45=41,618 
4646 FRAPierrick FédrigoFRABretagne - Séché Environnement04:21:40  +  00:00:45=41,618 
4747 PORRui CostaITALampre-Merida04:21:40  +  00:00:45=41,618 
4848 WALGeraint ThomasGBRSky Procycling04:21:54  +  00:00:59=41,581 
4949 PORTiago PintoRUSTeam Katusha04:21:54  +  00:00:59=41,581 
5050 ITAGiampaolo CarusoRUSTeam Katusha04:21:54  +  00:00:59=41,581 
5151 ESPAlberto LosadaRUSTeam Katusha04:21:54  +  00:00:59=41,581 
5252 URSTanel KangertKAZAstana Pro Team04:21:54  +  00:00:59=41,581 
5353 NOREdvald Boasson HagenZAFMTN - Qhubeka P/B Samsung04:21:57  +  00:01:02=41,573 
5454 FRASylvain ChavanelCHEIAM Cycling04:21:57  +  00:01:02=41,573 
5555 FRAAnthony DelaplaceFRABretagne - Séché Environnement04:21:57  +  00:01:02=41,573 
5656 SUIJakob FuglsangKAZAstana Pro Team04:22:04  +  00:01:09=41,554 
5757 AUTGeorg PreidlerDEUTeam Giant Alpecin04:22:04  +  00:01:09=41,554 
5858 NEDLaurens ten DamNLDTeam Lotto NL - Jumbo04:22:04  +  00:01:09=41,554 
5959 RSAJacques Janse Van RensburgZAFMTN - Qhubeka P/B Samsung04:22:04  +  00:01:09=41,554 
6060 FRAMickaël CherelFRAAg2r La Mondiale04:22:04  +  00:01:09=41,554 
6161 COLWinner AnaconaESPMovistar Team04:22:04  +  00:01:09=41,554 
6262 ESPRafael Valls FerriITALampre-Merida04:22:08  +  00:01:13=41,544 
6363 ERIDaniel TeklehaimanotZAFMTN - Qhubeka P/B Samsung04:22:08  +  00:01:13=41,544 
6464 FRAArmindo FonsecaFRABretagne - Séché Environnement04:22:08  +  00:01:13=41,544 
6565 CZEJan BártaDEUBora-Argon 1804:22:35  +  00:01:40=41,473 
6666 FRABrice FeilluFRABretagne - Séché Environnement04:22:35  +  00:01:40=41,473 
6767 PORJosé João PimentaDEUBora-Argon 1804:22:35  +  00:01:40=41,473 
6868 NEDStef ClementCHEIAM Cycling04:22:55  +  00:02:00=41,420 
6969 FRAJérôme CoppelCHEIAM Cycling04:22:55  +  00:02:00=41,420 
7070 NEDKoen De KortDEUTeam Giant Alpecin04:22:55  +  00:02:00=41,420 
7171 NEDBram TankinkNLDTeam Lotto NL - Jumbo04:22:55  +  00:02:00=41,420 
7272 ESPRubén PlazaITALampre-Merida04:22:55  +  00:02:00=41,420 
7373 FRAGeoffrey SoupeFRACofidis – Solutions Crédits04:23:03  +  00:02:08=41,399 
7474 SUISteve MorabitoFRAFDJ04:23:03  +  00:02:08=41,399 
7575 UKRAndriy GrivkoKAZAstana Pro Team04:23:21  +  00:02:26=41,352 
7676 ESPMarkel IrizarUSATrek Factory Racing04:23:21  +  00:02:26=41,352 
7777 NEDRoy CurversDEUTeam Giant Alpecin04:23:21  +  00:02:26=41,352 
7878 BELSep VanmarckeNLDTeam Lotto NL - Jumbo04:23:31  +  00:02:36=41,326 
7979 ESPJonathan CastroviejoESPMovistar Team04:23:44  +  00:02:49=41,292 
8080 SLOKristjan KorenUSATeam Cannondale - Garmin04:23:44  +  00:02:49=41,292 
8181 HRVKristijan DurasekITALampre-Merida04:23:44  +  00:02:49=41,292 
8282 FRABenoit VaugrenardFRAFDJ04:23:44  +  00:02:49=41,292 
8383 LUXBen GastauerFRAAg2r La Mondiale04:23:44  +  00:02:49=41,292 
8484 RSAReinardt Janse Van RensburgZAFMTN - Qhubeka P/B Samsung04:23:44  +  00:02:49=41,292 
8585 SUIReto HollensteinCHEIAM Cycling04:23:44  +  00:02:49=41,292 
8686 FRAPerrig QuemeneurFRATeam Europcar04:24:00  +  00:03:05=41,250 
8787 FRABryan NauleauFRATeam Europcar04:24:00  +  00:03:05=41,250 
8888 NEDJos Van EmdenNLDTeam Lotto NL - Jumbo04:24:03  +  00:03:08=41,242 
8989 ITAFilippo PozzatoITALampre-Merida04:24:03  +  00:03:08=41,242 
9090 ESPJosé Herrada LópezESPMovistar Team04:24:03  +  00:03:08=41,242 
9191 NEDRamon SinkeldamDEUTeam Giant Alpecin04:24:03  +  00:03:08=41,242 
9292 AUSLuke DurbridgeAUSOrica - GreenEDGE04:24:03  +  00:03:08=41,242 
9393 NEDWilco KeldermanNLDTeam Lotto NL - Jumbo04:24:03  +  00:03:08=41,242 
9494 NEDTom LeezerNLDTeam Lotto NL - Jumbo04:24:03  +  00:03:08=41,242 
9595 AUSAdam HansenBELLotto Soudal04:24:03  +  00:03:08=41,242 
9696 POLMichal KwiatkowskiBELEtixx - Quick Step04:24:03  +  00:03:08=41,242 
9797 AUSRichie PorteGBRSky Procycling04:24:03  +  00:03:08=41,242 
9898 BELJohan VansummerenFRAAg2r La Mondiale04:24:21  +  00:03:26=41,195 
9999 BELTim WellensBELLotto Soudal04:24:21  +  00:03:26=41,195 
100100 FRAMatthieu LadagnousFRAFDJ04:24:29  +  00:03:34=41,175 
101101 ITAMatteo BonoITALampre-Merida04:24:54  +  00:03:59=41,110 
102102 COLJosé SerpaITALampre-Merida04:24:54  +  00:03:59=41,110 
103103 FRAArnaud GérardFRABretagne - Séché Environnement04:24:57  +  00:04:02=41,102 
104104 FRAFlorian VachonFRABretagne - Séché Environnement04:24:57  +  00:04:02=41,102 
105105 FRAChristophe LaporteFRACofidis – Solutions Crédits04:24:57  +  00:04:02=41,102 
106106 CZELeopold KönigGBRSky Procycling04:25:02  +  00:04:07=41,089 
107107 FRAAlexandre GeniezFRAFDJ04:25:23  +  00:04:28=41,035 
108108 AUTMarco HallerRUSTeam Katusha04:25:34  +  00:04:39=41,007 
109109 BELThomas De GendtBELLotto Soudal04:25:47  +  00:04:52=40,973 
110110 FRABryan CoquardFRATeam Europcar04:25:47  +  00:04:52=40,973 
111111 FRAArnaud DémareFRAFDJ04:25:50  +  00:04:55=40,966 
112112 FRAAngelo TulikFRATeam Europcar04:25:50  +  00:04:55=40,966 
113113 NEDPieter WeeningAUSOrica - GreenEDGE04:26:09  +  00:05:14=40,917 
114114 ITADaniele BennatiRUSTinkoff Saxo04:26:37  +  00:05:42=40,845 
115115 AUSMichael RogersRUSTinkoff Saxo04:26:37  +  00:05:42=40,845 
116116 CANRyder HesjedalUSATeam Cannondale - Garmin04:26:37  +  00:05:42=40,845 
117117 ITADamiano CarusoUSABMC Racing Team04:26:37  +  00:05:42=40,845 
118118 NORAlexander KristoffRUSTeam Katusha04:26:37  +  00:05:42=40,845 
119119 USATyler FarrarZAFMTN - Qhubeka P/B Samsung04:27:07  +  00:06:12=40,769 
120120 ITAIvan BassoRUSTinkoff Saxo04:27:07  +  00:06:12=40,769 
121121 BELJulien VermoteBELEtixx - Quick Step04:27:07  +  00:06:12=40,769 
122122 SUIGregory RastUSATrek Factory Racing04:27:07  +  00:06:12=40,769 
123123 BELStijn DevolderUSATrek Factory Racing04:27:07  +  00:06:12=40,769 
124124 FRAFlorian SénéchalFRACofidis – Solutions Crédits04:27:07  +  00:06:12=40,769 
125125 DENLars BakBELLotto Soudal04:27:07  +  00:06:12=40,769 
126126 DENMichael ValgrenRUSTinkoff Saxo04:27:07  +  00:06:12=40,769 
127127 ESPDaniel NavarroFRACofidis – Solutions Crédits04:27:07  +  00:06:12=40,769 
128128 URSRein TaaramäeKAZAstana Pro Team04:27:07  +  00:06:12=40,769 
129129 GERMarcel SiebergBELLotto Soudal04:27:07  +  00:06:12=40,769 
130130 GERAndré GreipelBELLotto Soudal04:27:07  +  00:06:12=40,769 
131131 ITAJacopo GuarnieriRUSTeam Katusha04:27:07  +  00:06:12=40,769 
132132 ENGStephen CummingsZAFMTN - Qhubeka P/B Samsung04:27:07  +  00:06:12=40,769 
133133 ESPImanol ErvitiESPMovistar Team04:27:07  +  00:06:12=40,769 
134134 ITADaniel OssUSABMC Racing Team04:27:07  +  00:06:12=40,769 
135135 ENGIan StannardGBRSky Procycling04:27:07  +  00:06:12=40,769 
136136 ITAMatteo TrentinBELEtixx - Quick Step04:28:53  +  00:07:58=40,501 
137137 ITAMatteo TosattoRUSTinkoff Saxo04:28:53  +  00:07:58=40,501 
138138 FRAChristophe RiblonFRAAg2r La Mondiale04:28:53  +  00:07:58=40,501 
139139 FRANicolas RocheGBRSky Procycling04:28:53  +  00:07:58=40,501 
140140 SUIMichael SchärUSABMC Racing Team04:28:53  +  00:07:58=40,501 
141141 ITAManuel QuinziatoUSABMC Racing Team04:28:53  +  00:07:58=40,501 
142142 AUSRohan DennisUSABMC Racing Team04:28:53  +  00:07:58=40,501 
143143 FRASébastien ChavanelFRAFDJ04:28:53  +  00:07:58=40,501 
144144 FRAJérémy RoyFRAFDJ04:28:53  +  00:07:58=40,501 
145145 NEDLars BoomKAZAstana Pro Team04:28:53  +  00:07:58=40,501 
146146 SUIDanilo WyssUSABMC Racing Team04:28:53  +  00:07:58=40,501 
147147 SUIMartin ElmigerCHEIAM Cycling04:28:53  +  00:07:58=40,501 
148148 NEDLieuwe WestraKAZAstana Pro Team04:28:53  +  00:07:58=40,501 
149149 FRAPierre-Luc PérichonFRABretagne - Séché Environnement04:28:53  +  00:07:58=40,501 
150150 AUTMatthias BrändleCHEIAM Cycling04:28:53  +  00:07:58=40,501 
151151 LUXLaurent DidierUSATrek Factory Racing04:28:53  +  00:07:58=40,501 
152152 POLMichal GolasBELEtixx - Quick Step04:28:53  +  00:07:58=40,501 
153153 POLRafal MajkaRUSTinkoff Saxo04:28:53  +  00:07:58=40,501 
154154 POLBartosz HuzarskiDEUBora-Argon 1804:28:53  +  00:07:58=40,501 
155155 GERJohn DegenkolbDEUTeam Giant Alpecin04:28:53  +  00:07:58=40,501 
156156 BELJens DebusschereBELLotto Soudal04:28:53  +  00:07:58=40,501 
157157 FRAYohann GèneFRATeam Europcar04:28:53  +  00:07:58=40,501 
158158 BELSam BennettDEUBora-Argon 1804:28:53  +  00:07:58=40,501 
159159 CANSvein TuftAUSOrica - GreenEDGE04:28:53  +  00:07:58=40,501 
160160 AUSZakkari DempsterDEUBora-Argon 1804:28:53  +  00:07:58=40,501 
161161 IOMPeter KennaughGBRSky Procycling04:30:04  +  00:09:09=40,323 
162162 AUSMichael MatthewsAUSOrica - GreenEDGE04:30:04  +  00:09:09=40,323 
163163 IOMMark CavendishBELEtixx - Quick Step04:30:04  +  00:09:09=40,323 
164164 ENGAlex DowsettESPMovistar Team04:30:04  +  00:09:09=40,323 
165165 WALLuke RoweGBRSky Procycling04:30:04  +  00:09:09=40,323 
166166 ERIMerhawi GhebremedhinZAFMTN - Qhubeka P/B Samsung04:30:04  +  00:09:09=40,323 
167167 AUSMark RenshawBELEtixx - Quick Step04:30:04  +  00:09:09=40,323 
168168 NEDAlbert TimmerDEUTeam Giant Alpecin04:30:04  +  00:09:09=40,323 
169169 PORNelson OliveiraITALampre-Merida04:30:04  +  00:09:09=40,323 
170170 FRAFrédéric BrunFRABretagne - Séché Environnement04:30:04  +  00:09:09=40,323 
171171 FRARomain SicardFRATeam Europcar04:30:04  +  00:09:09=40,323 
172172 KAZDmitriy GruzdevKAZAstana Pro Team04:30:04  +  00:09:09=40,323 
173173 ITAAdriano MaloriESPMovistar Team04:30:04  +  00:09:09=40,323 
174174 RSALouis MeintjesZAFMTN - Qhubeka P/B Samsung04:30:04  +  00:09:09=40,323 
175175 ITAMichele ScarponiKAZAstana Pro Team04:30:04  +  00:09:09=40,323 
176176 FRANicolas EdetFRACofidis – Solutions Crédits04:30:44  +  00:09:49=40,224 
177177 BELKenneth VanbilsenFRACofidis – Solutions Crédits04:30:44  +  00:09:49=40,224 
178178 NEDDylan Van BaarleUSATeam Cannondale - Garmin04:31:53  +  00:10:58=40,054 
179179 ITADavide CimolaiITALampre-Merida04:31:53  +  00:10:58=40,054 
180180 AUSNathan HaasUSATeam Cannondale - Garmin04:31:53  +  00:10:58=40,054 
181181 NEDSebastian LangeveldUSATeam Cannondale - Garmin04:31:53  +  00:10:58=40,054 
182182 URSRamunas NavardauskasUSATeam Cannondale - Garmin04:31:53  +  00:10:58=40,054 
183183 NEDWout PoelsGBRSky Procycling04:31:53  +  00:10:58=40,054 
184184 GEREmanuel BuchmannDEUBora-Argon 1804:31:53  +  00:10:58=40,054 
185185 FRADamien GaudinFRAAg2r La Mondiale04:31:53  +  00:10:58=40,054 

Withdrawls: 1
 
Rider
Team
Reason
99  ITALuca PaoliniRUSTeam KatushaDid not start
Todays birthdays.

1878  Louis Gardent
1904  Ludwig Geyer
1911  Paul Egli
1916  Piet Van Nek
1926  Bruno Garonzi
1933  Roger Baens
1938  Roland Zöffel
1945  Marcello Osler
1946  Antonio Menendez
1962  Niki Rüttimann
1969  Serge Baguet
1970  Cédric Vasseur
1971  Cristian Salvato
1972  Sven Teutenberg
1988  Frédéric Brun